Wind_Speed
24 23 24 24 24 25 25 25 25 26 26 27 28 28 28 27 28 29 29 28 28 28 28 28 28 28 28 28 28 28 29 30 31 30 30 29 28 27 27 27 28 28 28
24 24 24 24 25 25 25 25 26 26 27 27 28 28 28 27 28 28 27 27 27 28 29 29 29 28 29 28 29 29 30 31 31 30 30 29 28 28 28 27 28 27 28
23 24 24 25 24 24 25 26 27 27 27 28 28 28 27 27 27 27 27 27 28 28 29 30 30 30 29 28 28 29 28 28 28 29 29 29 28 28 28 28 28 28 28
24 25 25 25 25 26 26 27 27 27 27 29 28 28 28 28 27 27 26 27 28 28 27 27 28 28 28 28 28 27 27 28 27 28 29 29 28 28 29 30 29 29 29
24 24 25 26 26 27 27 27 27 27 28 28 28 28 28 28 27 26 27 27 27 27 26 27 27 27 27 28 27 26 27 27 27 27 28 28 28 28 29 28 29 29 30
24 25 25 26 27 27 27 28 28 28 28 28 29 28 28 28 27 26 27 26 26 26 26 27 27 27 26 26 25 25 26 26 27 27 27 27 27 28 29 29 29 31 31
25 26 26 27 28 28 28 29 29 28 28 28 29 28 28 27 26 26 27 26 25 25 26 28 27 27 26 25 24 24 25 26 26 26 26 27 27 28 29 29 29 30 31
26 26 27 27 27 28 27 28 28 28 27 27 27 26 26 26 26 25 25 25 24 24 25 26 25 25 25 25 25 25 25 25 25 26 26 27 27 28 28 28 29 29 29
26 26 26 27 27 27 26 26 26 26 26 25 25 25 25 25 24 24 24 24 23 23 23 23 23 23 24 24 25 25 25 25 25 25 25 26 26 26 27 27 27 28 28
24 24 25 26 26 25 25 24 24 23 24 24 24 24 24 24 23 23 23 23 21 21 21 20 21 22 23 24 24 25 25 24 24 24 24 24 25 25 26 26 26 26 26
24 24 24 24 24 25 24 23 22 21 22 22 23 24 24 24 23 22 21 22 21 20 19 20 20 20 21 22 22 23 23 23 23 23 24 24 24 25 25 25 25 25 25
25 24 24 23 24 24 24 23 22 22 22 22 21 21 22 21 20 20 20 20 19 18 19 19 19 19 20 21 21 21 21 22 22 22 21 22 23 24 24 25 25 25 25
25 25 24 23 23 23 23 23 22 21 21 20 19 19 18 18 17 18 18 18 17 17 18 18 18 19 20 20 20 19 20 20 20 20 20 20 21 22 22 23 24 24 25
25 24 24 23 23 23 23 23 22 21 20 18 18 17 17 17 17 18 17 16 16 16 17 17 18 18 19 19 19 19 19 18 19 19 19 20 21 21 21 22 23 23 23
24 23 23 22 21 21 22 23 21 20 18 18 17 16 16 16 17 17 16 16 15 15 15 16 16 16 16 17 17 17 17 17 18 19 19 20 20 20 20 21 22 22 23
22 22 22 21 20 20 20 21 21 19 18 18 17 16 16 16 15 15 15 15 14 14 14 15 15 15 15 16 16 16 17 18 18 18 19 19 20 20 21 21 22 23 24
21 21 21 20 19 19 19 20 19 18 18 18 17 16 16 15 14 14 14 14 13 14 14 14 14 14 15 15 16 16 17 18 18 18 19 19 20 20 20 21 22 23 23
20 20 19 19 18 18 18 17 17 17 17 16 16 15 14 14 14 14 13 14 14 14 14 14 13 13 13 14 15 16 16 17 18 18 18 19 19 20 20 20 20 21 21
18 19 18 18 18 17 17 16 16 16 15 15 14 14 13 12 12 12 12 12 12 12 12 12 12 12 12 13 14 15 15 16 16 17 17 18 18 19 19 19 20 20 20
17 17 17 17 16 16 16 16 15 15 14 14 13 13 12 12 12 11 11 12 11 11 12 12 11 12 12 13 13 13 14 14 15 15 15 16 16 16 17 18 18 18 18
16 17 17 16 15 15 15 15 14 13 13 13 12 12 11 11 11 11 11 11 11 11 11 11 12 12 12 13 13 14 13 14 14 14 15 15 15 15 15 15 15 15 16
15 15 15 14 14 13 13 13 12 12 11 11 10 10 10 10 10 11 11 10 11 11 11 11 12 13 13 14 13 14 14 14 13 14 14 14 14 14 14 14 14 15 15
13 13 13 13 12 12 11 11 10 10 10 9 9 9 9 10 10 10 11 11 11 11 12 13 13 13 14 14 13 14 14 14 14 13 13 13 14 14 14 14 14 14 14
12 12 11 11 10 10 10 9 8 8 9 9 9 9 10 10 9 10 10 11 10 11 12 13 13 13 14 14 14 15 15 15 14 13 13 13 13 14 14 14 15 15 14
10 10 9 8 8 8 9 8 8 8 9 8 8 8 9 9 9 9 10 10 11 12 12 13 13 13 14 14 14 14 15 14 14 14 14 13 13 13 14 14 14 14 14
9 8 8 7 7 7 7 7 7 7 7 7 7 8 9 9 9 10 10 10 12 12 12 13 13 13 13 14 14 14 15 15 15 14 14 13 13 14 15 14 14 14 14
Wind_Direction
293 295 297 298 295 295 295 295 295 294 294 295 296 295 294 290 288 286 284 281 279 275 272 272 270 270 270 272 273 273 273 271 269 268 268 268 267 265 264 263 263 263 262
296 296 295 295 295 295 296 295 294 295 296 296 296 297 295 292 290 288 286 283 280 276 273 272 270 270 271 271 272 275 275 274 270 268 267 265 265 266 264 263 262 262 262
297 296 294 294 295 298 298 297 297 296 296 296 297 299 296 294 292 288 284 283 280 277 274 270 269 271 270 270 271 275 275 274 271 267 266 263 264 264 263 263 262 262 263
298 296 296 295 296 299 300 299 299 296 297 296 296 297 297 294 293 288 282 279 278 276 275 272 271 271 269 268 270 272 272 272 271 269 266 265 264 264 262 262 262 263 263
298 297 297 296 298 299 299 299 299 297 297 297 298 298 298 296 292 288 284 280 278 276 274 272 272 272 269 267 268 271 272 272 272 270 267 265 265 264 263 261 263 263 263
297 297 297 297 297 299 299 298 297 296 297 298 300 299 298 297 295 292 287 282 279 279 276 272 273 271 270 269 267 271 272 272 271 269 268 266 265 265 264 263 262 263 263
297 296 296 297 298 300 298 296 295 295 297 300 301 299 299 295 294 292 288 283 281 280 277 273 272 270 270 269 268 269 272 272 270 268 266 266 265 266 265 265 263 263 263
297 298 298 299 300 301 299 296 294 295 297 299 299 297 297 295 293 293 289 285 283 281 279 275 271 269 268 268 269 269 271 271 271 269 268 267 267 267 266 265 264 262 260
299 298 299 299 301 301 300 298 297 297 298 300 299 297 296 296 294 294 293 289 285 283 281 278 272 270 269 270 272 272 273 273 273 272 270 268 268 269 268 267 265 262 259
303 301 301 301 301 300 301 302 302 301 300 301 299 297 297 296 294 293 293 292 288 285 283 280 277 274 272 272 273 274 276 276 275 274 273 271 268 270 270 268 266 263 259
303 303 302 301 300 300 303 304 304 304 304 303 301 298 296 295 293 293 295 293 289 290 287 284 278 276 276 276 278 279 277 278 277 277 275 272 271 269 268 269 268 266 262
302 305 304 302 301 299 300 302 303 305 305 305 305 303 301 300 297 296 296 296 292 289 288 286 281 278 278 280 281 281 278 279 279 279 278 276 276 273 271 269 268 267 265
301 302 304 301 301 302 301 302 303 305 306 308 308 305 306 305 302 304 300 295 293 290 289 287 285 282 280 281 281 282 281 280 279 278 278 278 278 277 272 269 268 267 266
301 302 304 302 304 307 306 308 305 307 308 309 309 307 307 308 304 303 306 304 299 294 292 289 288 286 282 281 282 283 283 281 281 280 281 281 280 278 273 272 271 268 267
300 302 303 302 304 307 308 310 308 308 307 307 306 307 306 308 309 308 307 309 306 301 297 294 291 288 285 282 283 286 285 284 284 282 281 281 280 280 278 275 273 270 269
302 303 303 302 304 307 308 310 309 306 305 307 306 307 308 309 310 312 311 310 307 305 302 298 294 291 289 287 287 288 288 287 287 285 283 283 283 282 281 279 276 273 271
301 303 303 303 303 305 308 310 309 308 309 309 309 307 308 311 312 313 313 312 309 308 307 307 304 299 295 292 290 289 290 289 290 289 286 284 283 283 283 283 279 276 273
298 303 303 303 304 307 310 311 312 310 311 314 316 315 312 311 311 311 312 312 311 310 309 309 309 309 306 302 297 293 293 294 293 291 288 286 285 286 287 287 284 278 277
295 299 300 302 304 306 309 308 311 310 311 316 320 323 324 323 320 319 319 319 318 318 318 319 316 315 313 308 308 306 302 300 300 297 293 293 290 289 289 290 288 284 281
293 297 300 302 304 307 309 310 313 313 316 319 322 325 328 332 330 327 327 326 325 324 326 328 327 324 324 323 323 322 314 310 310 308 305 303 300 299 295 294 292 288 283
291 294 297 300 303 306 311 314 315 316 317 322 326 326 329 334 336 335 334 335 334 331 333 334 335 334 332 332 332 331 327 323 318 315 313 310 307 306 304 303 300 296 290
287 291 295 298 302 307 312 315 318 320 320 324 328 327 329 333 333 336 339 338 338 338 338 337 337 339 339 337 335 334 332 328 324 321 318 315 313 311 309 307 304 300 295
284 288 294 297 301 307 311 317 320 322 323 325 328 328 332 334 333 337 340 341 341 344 344 341 340 342 343 342 340 338 335 331 330 329 324 320 318 317 314 311 309 306 301
283 284 291 300 305 310 310 313 319 324 330 329 331 334 337 340 342 342 345 347 348 348 348 347 345 343 343 343 341 339 336 334 332 331 327 324 324 324 323 317 313 310 307
281 281 291 300 304 308 311 314 317 319 326 334 337 341 342 342 347 350 351 351 350 349 348 346 345 344 343 342 343 343 342 339 334 331 330 327 327 326 326 324 320 314 310
280 286 293 299 302 304 308 311 322 323 328 335 341 347 349 350 351 351 351 351 351 351 349 347 345 344 343 342 343 343 342 341 339 337 335 330 327 325 324 323 322 319 314
Height
5842 5840 5838 5836 5834 5831 5829 5827 5825 5823 5820 5818 5815 5813 5811 5809 5808 5806 5804 5803 5802 5802 5801 5801 5800 5800 5800 5799 5799 5798 5797 5797 5796 5796 5796 5796 5795 5795 5796 5796 5797 5798 5798
5836 5835 5833 5830 5828 5826 5824 5822 5820 5817 5815 5812 5809 5807 5805 5802 5800 5798 5796 5795 5794 5794 5793 5793 5792 5792 5792 5792 5791 5790 5790 5789 5787 5788 5788 5788 5789 5788 5789 5789 5789 5790 5791
5831 5829 5827 5825 5822 5819 5817 5816 5814 5811 5809 5806 5803 5801 5799 5797 5794 5792 5789 5788 5787 5786 5785 5785 5784 5785 5784 5784 5783 5783 5782 5781 5780 5780 5780 5780 5781 5781 5781 5781 5782 5783 5783
5825 5823 5821 5819 5816 5814 5812 5809 5807 5805 5802 5799 5797 5794 5792 5789 5787 5784 5782 5780 5779 5778 5777 5776 5776 5776 5776 5776 5776 5774 5774 5774 5773 5772 5772 5773 5773 5774 5774 5774 5774 5775 5776
5820 5818 5816 5813 5810 5808 5805 5803 5801 5798 5795 5793 5790 5787 5784 5782 5779 5776 5774 5773 5772 5771 5769 5769 5769 5769 5768 5768 5767 5767 5766 5766 5765 5765 5765 5765 5765 5765 5766 5767 5767 5767 5768
5814 5812 5810 5807 5804 5801 5799 5796 5793 5791 5788 5785 5782 5779 5777 5774 5772 5769 5768 5766 5765 5764 5762 5762 5761 5761 5761 5760 5760 5759 5759 5758 5758 5757 5757 5757 5757 5757 5758 5759 5759 5759 5760
5808 5806 5803 5800 5797 5794 5791 5788 5786 5783 5780 5778 5775 5772 5770 5767 5765 5763 5761 5759 5758 5757 5755 5754 5754 5753 5753 5753 5752 5752 5751 5751 5750 5750 5749 5749 5750 5750 5750 5750 5751 5751 5752
5801 5799 5797 5794 5790 5787 5784 5781 5778 5775 5773 5770 5768 5765 5763 5761 5759 5757 5754 5752 5751 5750 5748 5747 5746 5746 5746 5745 5745 5744 5744 5743 5743 5742 5742 5742 5742 5742 5742 5742 5743 5743 5744
5795 5793 5790 5787 5784 5780 5776 5773 5770 5768 5766 5763 5761 5758 5756 5755 5753 5750 5748 5746 5744 5743 5742 5741 5739 5739 5738 5738 5738 5737 5737 5736 5735 5735 5735 5734 5734 5734 5734 5734 5734 5735 5736
5789 5787 5784 5781 5778 5774 5770 5767 5764 5762 5760 5758 5755 5753 5751 5749 5746 5744 5743 5740 5738 5736 5736 5734 5733 5733 5732 5731 5731 5730 5730 5729 5729 5728 5728 5727 5727 5727 5726 5726 5727 5727 5728
5784 5782 5779 5775 5772 5769 5766 5762 5760 5757 5755 5753 5750 5748 5745 5742 5740 5738 5736 5734 5733 5731 5730 5729 5728 5727 5726 5725 5725 5724 5723 5723 5722 5722 5721 5720 5719 5719 5719 5719 5719 5720 5720
5779 5776 5773 5770 5767 5764 5761 5758 5755 5753 5751 5748 5745 5742 5738 5735 5734 5732 5730 5729 5727 5726 5725 5724 5722 5721 5721 5720 5719 5718 5717 5717 5716 5715 5715 5714 5713 5713 5712 5713 5713 5713 5713
5774 5771 5768 5765 5762 5759 5756 5754 5751 5748 5745 5743 5740 5738 5735 5732 5730 5728 5726 5724 5723 5722 5720 5719 5717 5716 5716 5715 5713 5713 5712 5711 5711 5710 5709 5708 5707 5707 5706 5706 5706 5706 5707
5767 5765 5762 5760 5757 5754 5751 5749 5746 5743 5740 5738 5736 5734 5731 5729 5727 5724 5722 5720 5718 5717 5716 5714 5713 5712 5711 5710 5708 5707 5707 5706 5705 5704 5703 5702 5702 5701 5700 5700 5700 5700 5700
5762 5760 5757 5755 5752 5750 5747 5745 5742 5739 5737 5734 5732 5730 5727 5725 5722 5720 5718 5717 5715 5713 5712 5710 5708 5707 5706 5705 5703 5703 5702 5701 5700 5699 5698 5697 5696 5695 5694 5694 5693 5693 5693
5756 5754 5752 5750 5748 5745 5743 5740 5738 5735 5733 5731 5728 5726 5723 5721 5719 5717 5715 5713 5712 5710 5708 5706 5705 5703 5702 5701 5699 5698 5697 5696 5695 5694 5693 5692 5691 5690 5689 5688 5687 5687 5686
5752 5750 5748 5745 5743 5741 5739 5736 5734 5732 5730 5727 5724 5722 5720 5717 5715 5714 5712 5710 5708 5707 5705 5703 5701 5700 5698 5696 5695 5694 5693 5692 5691 5689 5688 5687 5686 5685 5684 5682 5681 5681 5680
5747 5745 5743 5741 5739 5737 5735 5733 5730 5728 5726 5724 5721 5718 5716 5714 5712 5711 5709 5708 5706 5704 5702 5700 5698 5696 5694 5693 5691 5690 5688 5687 5686 5684 5683 5682 5680 5679 5678 5677 5675 5674 5673
5741 5740 5739 5737 5735 5733 5731 5729 5727 5724 5722 5720 5718 5715 5713 5711 5710 5708 5707 5705 5703 5702 5700 5697 5695 5693 5691 5689 5688 5686 5684 5683 5681 5680 5678 5677 5675 5674 5673 5671 5670 5669 5668
5737 5736 5734 5733 5731 5729 5727 5725 5723 5721 5718 5716 5715 5712 5711 5709 5707 5706 5704 5703 5701 5699 5697 5695 5693 5691 5689 5687 5685 5683 5681 5679 5677 5676 5674 5673 5671 5669 5667 5666 5664 5663 5662
5732 5731 5730 5729 5727 5725 5723 5721 5719 5717 5715 5713 5712 5710 5709 5707 5706 5704 5703 5701 5699 5698 5696 5694 5692 5689 5687 5685 5682 5680 5678 5676 5674 5673 5671 5669 5667 5665 5663 5662 5660 5659 5657
5727 5726 5725 5724 5723 5721 5719 5718 5716 5715 5713 5711 5710 5708 5707 5706 5704 5703 5701 5699 5698 5696 5694 5692 5690 5688 5685 5683 5680 5678 5676 5674 5672 5670 5668 5666 5664 5662 5660 5658 5656 5655 5653
5722 5721 5721 5720 5719 5718 5716 5715 5714 5712 5711 5710 5708 5707 5706 5704 5703 5701 5700 5698 5696 5694 5693 5691 5689 5686 5684 5681 5679 5677 5674 5671 5669 5667 5665 5663 5661 5659 5657 5655 5653 5651 5649
5718 5717 5717 5716 5715 5715 5714 5713 5712 5711 5710 5708 5707 5706 5704 5703 5701 5700 5698 5697 5695 5693 5691 5689 5687 5685 5683 5680 5678 5675 5672 5669 5667 5664 5662 5660 5658 5656 5654 5652 5650 5648 5646
5713 5713 5713 5713 5712 5712 5711 5711 5710 5709 5708 5707 5706 5705 5704 5702 5701 5699 5697 5696 5694 5692 5690 5688 5686 5684 5681 5679 5676 5673 5670 5668 5665 5662 5660 5658 5655 5653 5651 5649 5647 5644 5642
5710 5710 5710 5710 5709 5709 5709 5709 5708 5708 5707 5706 5705 5704 5703 5702 5700 5699 5697 5695 5693 5692 5690 5687 5685 5683 5680 5677 5675 5672 5669 5666 5663 5660 5658 5655 5653 5651 5648 5646 5644 5641 5639